EW8956 Weather Reports


Display with metric or nautical units.
time (UTC)temp
F
wind
direction
speed
MPH
gust
MPH
rain 1hr
in
rain 24hr
in
rain mn
in
humidity
%
barometer
mb
20260902034604 77 0 0.0 0.0 0.00 0.00 0.00 81 1019.1
20260902033103 77 0 0.0 0.0 0.00 0.00 0.00 81 1019.0
20260902031551 78 0 0.0 0.0 0.00 0.00 0.00 79 1018.9
20260902030056 78 0 0.0 0.0 0.00 0.00 0.00 79 1018.9
20260902024553 78 0 0.0 0.0 0.00 0.00 0.00 79 1019.0
20260902023051 78 0 0.0 0.0 0.00 0.00 0.00 79 1018.9
20260902021548 79 0 0.0 0.0 0.00 0.00 0.00 79 1018.7
20260902020055 80 0 0.0 0.0 0.00 0.00 0.00 79 1018.7
20260902014554 80 0 0.0 0.0 0.00 0.00 0.00 74 1018.4
20260902013051 80 0 0.0 0.0 0.00 0.00 0.00 75 1018.2
20260902011549 81 0 0.0 0.0 0.00 0.00 0.00 74 1018.2
20260902010046 82 0 0.0 0.0 0.00 0.00 0.00 72 1018.1
20260902004556 83 0 0.0 0.0 0.00 0.00 0.00 70 1017.8
20260902003054 83 0 0.0 0.0 0.00 0.00 0.00 67 1017.8
20260902001558 85 0 0.0 0.0 0.00 0.00 0.00 62 1017.7
20260902000052 86 0 0.0 0.0 0.00 0.00 0.00 60 1017.7
20260901234544 87 0 0.0 0.0 0.00 0.00 0.00 59 1017.7
20260901233101 88 0 0.0 0.0 0.00 0.00 0.00 56 1018.0
20260901231552 89 0 0.0 0.0 0.00 0.00 0.00 54 1018.0
20260901230050 90 0 0.0 0.0 0.00 0.00 0.00 53 1018.1
20260901224548 90 0 0.0 0.0 0.00 0.00 0.00 51 1018.2
20260901223055 91 0 0.0 0.0 0.00 0.00 0.00 50 1018.1
20260901221555 92 0 0.0 0.0 0.00 0.00 0.00 48 1018.0
20260901220113 92 0 0.0 0.0 0.00 0.00 0.00 47 1017.8
20260901214551 93 0 0.0 0.0 0.00 0.00 0.00 48 1017.6
20260901213046 92 0 0.0 0.0 0.00 0.00 0.00 49 1018.0
20260901211543 93 0 0.0 0.0 0.00 0.00 0.00 46 1018.2
20260901210052 94 0 0.0 0.0 0.00 0.00 0.00 44 1018.2
20260901204555 95 0 0.0 2.0 0.00 0.70 0.00 46 1018.2
20260901203049 94 0 0.0 2.0 0.00 0.70 0.00 45 1018.3
20260901201558 94 0 0.0 0.0 0.00 0.70 0.00 45 1018.3
20260901200052 93 0 0.0 0.0 0.00 0.70 0.00 46 1018.5
20260901194601 95 0 0.0 2.0 0.00 1.13 0.00 46 1018.7
20260901193103 95 0 0.0 0.0 0.00 1.13 0.00 47 1018.8
20260901191557 94 0 0.0 3.0 0.00 1.13 0.00 43 1018.9
20260901190052 95 0 0.0 2.0 0.00 1.13 0.00 43 1019.1
20260901184556 95 0 0.0 3.0 0.00 1.13 0.00 44 1019.2
20260901183049 94 0 0.0 5.0 0.00 1.13 0.00 46 1019.2
20260901181553 94 219 0.0 3.0 0.00 1.13 0.00 46 1019.4
20260901180049 94 0 0.0 3.0 0.00 1.13 0.00 45 1019.4
20260901174601 93 0 0.0 2.0 0.00 1.13 0.00 48 1019.6
20260901173053 92 0 0.0 1.0 0.00 1.13 0.00 49 1019.6
20260901171555 92 0 0.0 2.0 0.00 1.13 0.00 50 1019.6
20260901170108 93 0 0.0 0.0 0.00 1.13 0.00 49 1019.7
20260901164602 92 0 0.0 3.0 0.00 1.13 0.00 51 1019.9
20260901163053 90 0 0.0 1.0 0.00 1.13 0.00 57 1020.1
20260901161555 90 0 0.0 1.0 0.00 1.13 0.00 56 1020.4
20260901160054 89 0 0.0 2.0 0.00 1.13 0.00 56 1020.5
20260901154608 90 169 0.0 1.0 0.00 1.13 0.00 58 1020.6
20260901153052 88 0 0.0 2.0 0.00 1.13 0.00 59 1020.9
20260901151556 88 0 0.0 0.0 0.00 1.13 0.00 62 1021.0
20260901150103 87 0 0.0 0.0 0.00 1.13 0.00 64 1021.1
20260901144552 86 0 0.0 0.0 0.00 1.13 0.00 66 1021.2
20260901143051 85 0 0.0 0.0 0.00 1.13 0.00 67 1021.1
20260901141556 85 0 0.0 0.0 0.00 1.13 0.00 69 1021.1
20260901140105 83 0 0.0 0.0 0.00 1.13 0.00 75 1021.1
20260901134548 81 0 0.0 0.0 0.00 1.13 0.00 78 1021.0
20260901133053 80 0 0.0 0.0 0.00 1.13 0.00 81 1021.0
20260901131555 78 0 0.0 0.0 0.00 1.13 0.00 83 1021.0
20260901130049 76 0 0.0 0.0 0.00 1.13 0.00 86 1020.9
20260901124604 75 0 0.0 0.0 0.00 1.13 0.00 89 1020.9
20260901123052 75 0 0.0 0.0 0.00 1.13 0.00 92 1020.9
20260901121600 73 0 0.0 0.0 0.00 1.13 0.00 94 1020.9
20260901120104 72 0 0.0 0.0 0.00 1.13 0.00 95 1020.7
20260901114556 71 0 0.0 0.0 0.00 1.13 0.00 94 1020.7
20260901113057 71 0 0.0 0.0 0.00 1.13 0.00 94 1020.5
20260901111601 71 0 0.0 0.0 0.00 1.13 0.00 94 1020.3
20260901110059 71 0 0.0 0.0 0.00 1.13 0.00 94 1020.3
20260901104557 71 0 0.0 0.0 0.00 1.13 0.00 94 1019.9
20260901103051 71 0 0.0 0.0 0.00 1.13 0.00 94 1019.7
20260901101550 71 0 0.0 0.0 0.00 1.13 0.00 94 1019.9
20260901100056 71 0 0.0 0.0 0.00 1.13 0.00 94 1019.8
20260901094554 71 0 0.0 0.0 0.00 1.13 0.00 94 1019.7
20260901093052 71 0 0.0 0.0 0.00 1.13 0.00 94 1019.8
20260901091557 71 0 0.0 0.0 0.00 1.13 0.00 94 1019.7
20260901090054 71 0 0.0 0.0 0.00 1.13 0.00 94 1019.6
20260901084619 72 0 0.0 0.0 0.00 1.13 0.00 94 1019.8
20260901083048 72 0 0.0 0.0 0.00 1.13 0.00 94 1020.0
20260901081545 72 0 0.0 0.0 0.00 1.13 0.00 94 1019.9
20260901080056 72 0 0.0 0.0 0.00 1.13 0.00 94 1019.9
20260901074558 72 0 0.0 0.0 0.00 1.13 0.00 94 1019.9
20260901073049 72 0 0.0 0.0 0.00 1.13 0.00 94 1020.0
20260901071555 72 0 0.0 0.0 0.00 1.13 0.00 94 1020.2
20260901070056 72 0 0.0 0.0 0.00 1.13 0.00 94 1020.3
20260901064548 72 0 0.0 0.0 0.00 1.13 0.00 94 1020.2
20260901063107 72 0 0.0 0.0 0.00 1.13 0.00 94 1020.3
20260901061555 72 0 0.0 0.0 0.00 1.13 0.00 94 1020.4
20260901060048 73 0 0.0 0.0 0.00 1.13 0.00 94 1020.5
20260901054553 73 0 0.0 0.0 0.00 1.13 0.00 94 1020.5
20260901053056 73 0 0.0 0.0 0.00 1.13 0.00 93 1020.6
20260901051619 73 0 0.0 0.0 0.00 1.13 0.00 93 1020.5
20260901044555 73 0 0.0 0.0 0.00 1.13 0.00 93 1020.5
20260901043056 73 0 0.0 0.0 0.00 1.13 0.00 93 1020.6
20260901041552 74 0 0.0 0.0 0.00 1.13 0.00 93 1020.6
20260901040049 74 0 0.0 0.0 0.00 1.13 0.00 93 1020.6